Tracking 29062 objects as of 23-Jul-2024
HD Live streaming from Space Station
objects crossing your sky now

CZ-4B DEB

Track CZ-4B DEB now!
10-day predictions


NORAD ID: 40530
Int'l Code: 2013-057C
Perigee: 592.9 km
Apogee: 871.4 km
Inclination: 75.1 °
Period: 99.3 minutes
Semi major axis: 7103 km
RCS: Unknown
Launch date: October 25, 2013
Source: People's Republic of China (PRC)
Launch site: Jiuquan Satellite Launch Center, China (JSC)

Note: This is SATELLITE DEBRIS
Your satellite tracking list
Your tracking list is empty




NASA's NSSDC Master Catalog

Two Line Element Set (TLE):
1 40530U 13057C   24204.55827726  .00005310  00000-0  10704-2 0  9995
2 40530  75.0543  52.7570 0196067 313.6804  44.8253 14.50187472491287
Source of the keplerian elements: AFSPC